Location: Unspecified
(40.7857°N, 0.0000°E)
Time: 06:39:49
(UTC+00:00)

NIMBUS 2 DEB - Visible Passes

Search period start: 04 April 2026 00:00
Search period end: 14 April 2026 00:00
Orbit: 1019 x 1061 km, 100.3° (Epoch: 1 December)

Date Brightness Start Highest point End Pass type
(mag) Time Alt. Az. Time Alt. Az. Time Alt. Az.
4 Apr ? 01:28:39 10° NNW 01:31:23 18° NW 01:31:23 18° NW visible
4 Apr ? 22:42:39 10° NE 22:43:14 12° NE 22:43:14 12° NE visible
5 Apr ? 00:26:11 10° N 00:29:13 29° N 00:29:13 29° N visible
5 Apr ? 23:24:51 10° NNE 23:27:03 22° NNE 23:27:03 22° NNE visible
6 Apr ? 01:09:51 10° N 01:13:02 23° NNW 01:13:02 23° NNW visible
7 Apr ? 00:07:46 10° NNE 00:10:51 30° N 00:10:51 30° N visible
7 Apr ? 01:54:30 10° NNW 01:56:50 14° NW 01:56:50 14° NW visible
7 Apr ? 23:06:48 10° NNE 23:08:40 19° NE 23:08:40 19° NE visible
8 Apr ? 00:51:11 10° N 00:54:39 28° NNW 00:54:39 28° NNW visible
8 Apr ? 23:49:26 10° NNE 23:52:27 30° NNE 23:52:27 30° NNE visible
9 Apr ? 01:35:15 10° NNW 01:38:27 18° NW 01:38:27 18° NW visible
9 Apr ? 22:48:53 10° NE 22:50:16 15° NE 22:50:16 15° NE visible
10 Apr ? 00:32:38 10° N 00:36:15 33° NNW 00:36:15 33° NNW visible
10 Apr ? 23:31:11 10° NNE 23:34:02 27° NE 23:34:02 27° NE visible
11 Apr ? 01:16:20 10° N 01:20:01 23° NW 01:20:01 23° NW visible
11 Apr ? 22:31:17 10° NE 22:31:50 12° NE 22:31:50 12° NE visible
12 Apr ? 00:14:08 10° N 00:17:49 36° N 00:17:49 36° N visible
12 Apr ? 02:01:14 10° NNW 02:03:43 12° NW 02:03:48 12° NW visible
12 Apr ? 23:13:01 10° NNE 23:15:36 23° NE 23:15:36 23° NE visible
13 Apr ? 00:57:35 10° N 01:01:35 30° NW 01:01:35 30° NW visible
